Time,TemperatureF,DewpointF,PressureIn,WindDirection,WindDirectionDegrees,WindSpeedMPH,WindSpeedGustMPH,Humidity,HourlyPrecipIn,Conditions,Clouds,dailyrainin,SolarRadiationWatts/m^2,SoftwareType,DateUTC
2013-03-06 00:01:00,50.1,47.2,30.08,SSW,193,0.0,0.0,90,0.00,,,0.00,0,HR-IXPWINDi_r2_v1.2.,2013-03-06 08:01:00,
2013-03-06 00:06:00,50.0,46.8,30.09,SSW,193,0.0,1.0,89,0.00,,,0.00,0,HR-IXPWINDi_r2_v1.2.,2013-03-06 08:06:00,
2013-03-06 00:11:00,49.7,46.8,30.09,SSW,193,0.0,1.0,90,0.00,,,0.00,0,HR-IXPWINDi_r2_v1.2.,2013-03-06 08:11:00,
2013-03-06 00:17:00,49.6,46.7,30.09,SSW,193,0.0,1.0,90,0.00,,,0.00,0,HR-IXPWINDi_r2_v1.2.,2013-03-06 08:17:00,
2013-03-06 00:22:00,49.6,46.7,30.08,SSW,193,0.0,1.0,90,0.00,,,0.00,0,HR-IXPWINDi_r2_v1.2.,2013-03-06 08:22:00,
2013-03-06 00:27:00,49.5,46.6,30.08,SSW,193,1.0,2.0,90,0.00,,,0.00,0,HR-IXPWINDi_r2_v1.2.,2013-03-06 08:27:00,
2013-03-06 00:32:00,49.4,46.5,30.08,SSW,193,0.0,3.0,90,0.00,,,0.00,0,HR-IXPWINDi_r2_v1.2.,2013-03-06 08:32:00,
2013-03-06 00:37:00,49.4,46.5,30.08,SSW,202,1.0,3.0,90,0.00,,,0.00,0,HR-IXPWINDi_r2_v1.2.,2013-03-06 08:37:00,
2013-03-06 00:43:00,49.2,46.0,30.09,SSW,195,2.0,5.0,89,0.00,,,0.00,0,HR-IXPWINDi_r2_v1.2.,2013-03-06 08:43:00,
2013-03-06 00:48:00,49.2,46.0,30.08,South,186,3.0,5.0,89,0.00,,,0.00,0,HR-IXPWINDi_r2_v1.2.,2013-03-06 08:48:00,
2013-03-06 00:53:00,49.1,45.9,30.09,SSW,200,1.0,5.0,89,0.00,,,0.00,0,HR-IXPWINDi_r2_v1.2.,2013-03-06 08:53:00,
2013-03-06 00:58:00,49.2,46.0,30.09,South,188,1.0,5.0,89,0.00,,,0.00,0,HR-IXPWINDi_r2_v1.2.,2013-03-06 08:58:00,
2013-03-06 01:03:00,49.2,46.0,30.09,South,169,2.0,3.0,89,0.00,,,0.00,0,HR-IXPWINDi_r2_v1.2.,2013-03-06 09:03:00,
2013-03-06 01:09:00,49.2,45.7,30.09,South,189,1.0,3.0,88,0.00,,,0.00,0,HR-IXPWINDi_r2_v1.2.,2013-03-06 09:09:00,
2013-03-06 01:14:00,49.2,45.7,30.10,South,189,0.0,3.0,88,0.00,,,0.00,0,HR-IXPWINDi_r2_v1.2.,2013-03-06 09:14:00,
2013-03-06 01:19:00,49.2,45.7,30.10,South,189,0.0,2.0,88,0.00,,,0.00,0,HR-IXPWINDi_r2_v1.2.,2013-03-06 09:19:00,
2013-03-06 01:24:00,49.1,45.6,30.10,South,189,0.0,1.0,88,0.00,,,0.00,0,HR-IXPWINDi_r2_v1.2.,2013-03-06 09:24:00,
2013-03-06 01:30:00,49.2,45.7,30.09,South,189,0.0,1.0,88,0.00,,,0.00,0,HR-IXPWINDi_r2_v1.2.,2013-03-06 09:30:00,
2013-03-06 01:35:00,49.3,45.8,30.09,South,189,0.0,1.0,88,0.00,,,0.00,0,HR-IXPWINDi_r2_v1.2.,2013-03-06 09:35:00,
2013-03-06 01:40:00,49.2,45.7,30.10,South,189,0.0,1.0,88,0.00,,,0.00,0,HR-IXPWINDi_r2_v1.2.,2013-03-06 09:40:00,
2013-03-06 01:45:00,49.1,45.6,30.10,South,189,1.0,1.0,88,0.00,,,0.00,0,HR-IXPWINDi_r2_v1.2.,2013-03-06 09:45:00,
2013-03-06 01:51:00,49.0,45.5,30.10,South,189,0.0,1.0,88,0.00,,,0.00,0,HR-IXPWINDi_r2_v1.2.,2013-03-06 09:51:00,
2013-03-06 01:56:00,49.0,45.5,30.10,South,189,0.0,1.0,88,0.00,,,0.00,0,HR-IXPWINDi_r2_v1.2.,2013-03-06 09:56:00,
2013-03-06 02:01:00,49.0,45.5,30.11,SW,215,1.0,2.0,88,0.00,,,0.00,0,HR-IXPWINDi_r2_v1.2.,2013-03-06 10:01:00,
2013-03-06 02:06:00,49.0,45.5,30.11,WSW,237,0.0,3.0,88,0.00,,,0.00,0,HR-IXPWINDi_r2_v1.2.,2013-03-06 10:06:00,
2013-03-06 02:11:00,49.0,45.8,30.10,WSW,237,0.0,3.0,89,0.00,,,0.00,0,HR-IXPWINDi_r2_v1.2.,2013-03-06 10:11:00,
2013-03-06 02:17:00,49.0,45.8,30.10,WSW,237,0.0,2.0,89,0.00,,,0.00,0,HR-IXPWINDi_r2_v1.2.,2013-03-06 10:17:00,
2013-03-06 02:22:00,48.9,45.7,30.10,WSW,237,0.0,1.0,89,0.00,,,0.00,0,HR-IXPWINDi_r2_v1.2.,2013-03-06 10:22:00,
2013-03-06 02:27:00,48.9,45.7,30.10,WSW,237,0.0,1.0,89,0.00,,,0.00,0,HR-IXPWINDi_r2_v1.2.,2013-03-06 10:27:00,
2013-03-06 02:32:00,48.8,45.6,30.09,WSW,237,1.0,1.0,89,0.00,,,0.00,0,HR-IXPWINDi_r2_v1.2.,2013-03-06 10:32:00,
2013-03-06 02:37:00,48.7,45.5,30.09,WSW,237,0.0,1.0,89,0.00,,,0.00,0,HR-IXPWINDi_r2_v1.2.,2013-03-06 10:37:00,
2013-03-06 02:42:00,48.6,45.4,30.09,WSW,237,0.0,1.0,89,0.00,,,0.00,0,HR-IXPWINDi_r2_v1.2.,2013-03-06 10:42:00,
2013-03-06 02:47:00,48.5,45.3,30.09,WSW,237,0.0,1.0,89,0.00,,,0.00,0,HR-IXPWINDi_r2_v1.2.,2013-03-06 10:47:00,
2013-03-06 02:53:00,48.5,45.3,30.08,WSW,237,0.0,0.0,89,0.00,,,0.00,0,HR-IXPWINDi_r2_v1.2.,2013-03-06 10:53:00,
2013-03-06 02:58:00,48.6,45.4,30.08,WSW,237,0.0,0.0,89,0.00,,,0.00,0,HR-IXPWINDi_r2_v1.2.,2013-03-06 10:58:00,
2013-03-06 03:03:00,48.3,45.2,30.08,WSW,237,0.0,0.0,89,0.00,,,0.00,0,HR-IXPWINDi_r2_v1.2.,2013-03-06 11:03:00,
2013-03-06 03:08:00,48.2,45.3,30.08,WSW,237,0.0,0.0,90,0.00,,,0.00,0,HR-IXPWINDi_r2_v1.2.,2013-03-06 11:08:00,
2013-03-06 03:13:00,48.2,45.3,30.08,WSW,237,0.0,1.0,90,0.00,,,0.00,0,HR-IXPWINDi_r2_v1.2.,2013-03-06 11:13:00,
2013-03-06 03:19:00,48.2,45.3,30.08,WSW,237,0.0,1.0,90,0.00,,,0.00,0,HR-IXPWINDi_r2_v1.2.,2013-03-06 11:19:00,
2013-03-06 03:24:00,48.0,45.1,30.08,WSW,237,0.0,0.0,90,0.00,,,0.00,0,HR-IXPWINDi_r2_v1.2.,2013-03-06 11:24:00,
2013-03-06 03:29:00,47.7,44.9,30.08,WSW,237,0.0,0.0,90,0.00,,,0.00,0,HR-IXPWINDi_r2_v1.2.,2013-03-06 11:29:00,
2013-03-06 03:34:00,47.5,44.7,30.08,South,186,0.0,2.0,90,0.00,,,0.00,0,HR-IXPWINDi_r2_v1.2.,2013-03-06 11:34:00,
2013-03-06 03:39:00,47.0,44.2,30.08,South,186,0.0,2.0,90,0.00,,,0.00,0,HR-IXPWINDi_r2_v1.2.,2013-03-06 11:39:00,
2013-03-06 03:45:00,46.3,43.5,30.08,South,186,0.0,0.0,90,0.00,,,0.00,0,HR-IXPWINDi_r2_v1.2.,2013-03-06 11:45:00,
2013-03-06 03:50:00,45.8,43.0,30.08,South,186,0.0,0.0,90,0.00,,,0.00,0,HR-IXPWINDi_r2_v1.2.,2013-03-06 11:50:00,
2013-03-06 03:55:00,45.1,42.3,30.08,South,186,0.0,0.0,90,0.00,,,0.00,0,HR-IXPWINDi_r2_v1.2.,2013-03-06 11:55:00,
2013-03-06 04:01:00,44.8,42.3,30.08,South,186,0.0,0.0,91,0.00,,,0.00,0,HR-IXPWINDi_r2_v1.2.,2013-03-06 12:01:00,
2013-03-06 04:06:00,44.2,41.7,30.08,South,186,0.0,0.0,91,0.00,,,0.00,0,HR-IXPWINDi_r2_v1.2.,2013-03-06 12:06:00,
2013-03-06 04:11:00,43.9,41.4,30.08,South,186,0.0,0.0,91,0.00,,,0.00,0,HR-IXPWINDi_r2_v1.2.,2013-03-06 12:11:00,
2013-03-06 04:16:00,43.7,41.5,30.09,South,186,0.0,0.0,92,0.00,,,0.00,0,HR-IXPWINDi_r2_v1.2.,2013-03-06 12:16:00,
2013-03-06 04:21:00,43.5,41.3,30.09,South,186,0.0,0.0,92,0.00,,,0.00,0,HR-IXPWINDi_r2_v1.2.,2013-03-06 12:21:00,
2013-03-06 04:27:00,43.2,41.0,30.09,South,186,0.0,1.0,92,0.00,,,0.00,0,HR-IXPWINDi_r2_v1.2.,2013-03-06 12:27:00,
2013-03-06 04:32:00,43.4,41.5,30.10,SSW,198,1.0,1.0,93,0.00,,,0.00,0,HR-IXPWINDi_r2_v1.2.,2013-03-06 12:32:00,
2013-03-06 04:37:00,43.5,41.6,30.10,SSW,198,0.0,1.0,93,0.00,,,0.00,0,HR-IXPWINDi_r2_v1.2.,2013-03-06 12:37:00,
2013-03-06 04:42:00,43.6,41.7,30.10,SSW,198,0.0,1.0,93,0.00,,,0.00,0,HR-IXPWINDi_r2_v1.2.,2013-03-06 12:42:00,
2013-03-06 04:48:00,43.7,41.8,30.09,SSW,198,0.0,1.0,93,0.00,,,0.00,0,HR-IXPWINDi_r2_v1.2.,2013-03-06 12:48:00,
2013-03-06 04:53:00,43.6,41.7,30.09,SSW,198,0.0,1.0,93,0.00,,,0.00,0,HR-IXPWINDi_r2_v1.2.,2013-03-06 12:53:00,
2013-03-06 04:58:00,43.5,41.6,30.09,SSW,198,0.0,0.0,93,0.00,,,0.00,0,HR-IXPWINDi_r2_v1.2.,2013-03-06 12:58:00,
2013-03-06 05:03:00,43.3,41.4,30.09,SSW,198,0.0,0.0,93,0.00,,,0.00,0,HR-IXPWINDi_r2_v1.2.,2013-03-06 13:03:00,
2013-03-06 05:08:00,42.9,41.0,30.09,SSW,198,0.0,1.0,93,0.00,,,0.00,0,HR-IXPWINDi_r2_v1.2.,2013-03-06 13:08:00,
2013-03-06 05:13:00,42.7,40.8,30.09,SSW,198,0.0,1.0,93,0.00,,,0.00,0,HR-IXPWINDi_r2_v1.2.,2013-03-06 13:13:00,
2013-03-06 05:19:00,42.7,40.8,30.08,SSW,198,0.0,1.0,93,0.00,,,0.00,0,HR-IXPWINDi_r2_v1.2.,2013-03-06 13:19:00,
2013-03-06 05:24:00,42.8,41.1,30.08,SSW,198,0.0,1.0,94,0.00,,,0.00,0,HR-IXPWINDi_r2_v1.2.,2013-03-06 13:24:00,
2013-03-06 05:29:00,42.9,41.2,30.09,SSW,198,0.0,1.0,94,0.00,,,0.00,0,HR-IXPWINDi_r2_v1.2.,2013-03-06 13:29:00,
2013-03-06 05:34:00,42.6,40.7,30.09,SSW,198,0.0,0.0,93,0.00,,,0.00,0,HR-IXPWINDi_r2_v1.2.,2013-03-06 13:34:00,
2013-03-06 05:39:00,42.3,40.4,30.09,SSW,198,0.0,1.0,93,0.00,,,0.00,0,HR-IXPWINDi_r2_v1.2.,2013-03-06 13:39:00,
2013-03-06 05:44:00,42.5,40.8,30.09,SW,225,0.0,2.0,94,0.00,,,0.00,0,HR-IXPWINDi_r2_v1.2.,2013-03-06 13:44:00,
2013-03-06 05:50:00,42.8,41.1,30.10,WNW,296,2.0,4.0,94,0.00,,,0.00,0,HR-IXPWINDi_r2_v1.2.,2013-03-06 13:50:00,
2013-03-06 05:55:00,43.4,41.7,30.10,NW,310,1.0,4.0,94,0.00,,,0.00,0,HR-IXPWINDi_r2_v1.2.,2013-03-06 13:55:00,
2013-03-06 06:00:00,43.3,41.6,30.10,NW,311,3.0,4.0,94,0.00,,,0.00,0,HR-IXPWINDi_r2_v1.2.,2013-03-06 14:00:00,
2013-03-06 06:05:00,43.0,41.3,30.10,NW,315,0.0,4.0,94,0.00,,,0.00,0,HR-IXPWINDi_r2_v1.2.,2013-03-06 14:05:00,
2013-03-06 06:10:00,42.6,40.9,30.10,NW,326,1.0,4.0,94,0.00,,,0.00,0,HR-IXPWINDi_r2_v1.2.,2013-03-06 14:10:00,
2013-03-06 06:16:00,42.7,41.0,30.10,NW,323,1.0,3.0,94,0.00,,,0.00,0,HR-IXPWINDi_r2_v1.2.,2013-03-06 14:16:00,
2013-03-06 06:21:00,42.7,41.0,30.10,NW,315,0.0,4.0,94,0.00,,,0.00,0,HR-IXPWINDi_r2_v1.2.,2013-03-06 14:21:00,
2013-03-06 06:26:00,42.7,41.0,30.10,NW,317,2.0,4.0,94,0.00,,,0.00,7,HR-IXPWINDi_r2_v1.2.,2013-03-06 14:26:00,
2013-03-06 06:31:00,42.6,40.9,30.11,NW,317,1.0,3.0,94,0.00,,,0.00,12,HR-IXPWINDi_r2_v1.2.,2013-03-06 14:31:00,
2013-03-06 06:37:00,42.7,41.0,30.11,NW,317,1.0,3.0,94,0.00,,,0.00,18,HR-IXPWINDi_r2_v1.2.,2013-03-06 14:37:00,
2013-03-06 06:42:00,42.8,41.1,30.11,NW,317,1.0,2.0,94,0.00,,,0.00,30,HR-IXPWINDi_r2_v1.2.,2013-03-06 14:42:00,
2013-03-06 06:47:00,43.1,41.4,30.11,NW,315,0.0,2.0,94,0.00,,,0.00,28,HR-IXPWINDi_r2_v1.2.,2013-03-06 14:47:00,
2013-03-06 06:52:00,43.4,41.7,30.11,NW,315,1.0,3.0,94,0.00,,,0.00,33,HR-IXPWINDi_r2_v1.2.,2013-03-06 14:52:00,
2013-03-06 06:57:00,43.9,42.2,30.11,NW,321,1.0,3.0,94,0.00,,,0.00,39,HR-IXPWINDi_r2_v1.2.,2013-03-06 14:57:00,
2013-03-06 07:03:00,44.3,42.6,30.11,NW,324,1.0,3.0,94,0.00,,,0.00,44,HR-IXPWINDi_r2_v1.2.,2013-03-06 15:03:00,
2013-03-06 07:08:00,44.6,42.9,30.11,NW,325,2.0,3.0,94,0.00,,,0.00,46,HR-IXPWINDi_r2_v1.2.,2013-03-06 15:08:00,
2013-03-06 07:13:00,44.9,43.2,30.11,NW,324,1.0,3.0,94,0.00,,,0.00,49,HR-IXPWINDi_r2_v1.2.,2013-03-06 15:13:00,
2013-03-06 07:18:00,45.2,43.5,30.12,NW,319,0.0,3.0,94,0.00,,,0.00,62,HR-IXPWINDi_r2_v1.2.,2013-03-06 15:18:00,
2013-03-06 07:23:00,45.9,44.2,30.12,NW,319,1.0,3.0,94,0.00,,,0.00,60,HR-IXPWINDi_r2_v1.2.,2013-03-06 15:23:00,
2013-03-06 07:28:00,46.3,44.3,30.12,NNW,327,2.0,3.0,93,0.00,,,0.00,70,HR-IXPWINDi_r2_v1.2.,2013-03-06 15:28:00,
2013-03-06 07:34:00,46.7,44.7,30.12,NNW,327,0.0,3.0,93,0.00,,,0.00,90,HR-IXPWINDi_r2_v1.2.,2013-03-06 15:34:00,
2013-03-06 07:39:00,47.4,45.1,30.12,NNW,327,0.0,3.0,92,0.00,,,0.00,141,HR-IXPWINDi_r2_v1.2.,2013-03-06 15:39:00,
2013-03-06 07:44:00,48.0,45.4,30.12,NNW,327,1.0,3.0,91,0.00,,,0.00,120,HR-IXPWINDi_r2_v1.2.,2013-03-06 15:44:00,
2013-03-06 07:49:00,48.7,45.8,30.12,NNW,327,0.0,3.0,90,0.00,,,0.00,174,HR-IXPWINDi_r2_v1.2.,2013-03-06 15:49:00,
2013-03-06 07:54:00,49.9,46.7,30.12,NNW,327,0.0,2.0,89,0.00,,,0.00,104,HR-IXPWINDi_r2_v1.2.,2013-03-06 15:54:00,
2013-03-06 07:59:00,50.1,46.3,30.12,NNW,327,0.0,2.0,87,0.00,,,0.00,121,HR-IXPWINDi_r2_v1.2.,2013-03-06 15:59:00,
2013-03-06 08:04:00,50.3,46.2,30.12,NNW,331,1.0,2.0,86,0.00,,,0.00,146,HR-IXPWINDi_r2_v1.2.,2013-03-06 16:04:00,
2013-03-06 08:10:00,50.6,46.2,30.12,NNW,331,0.0,2.0,85,0.00,,,0.00,171,HR-IXPWINDi_r2_v1.2.,2013-03-06 16:10:00,
2013-03-06 08:15:00,51.2,46.8,30.12,NNW,331,0.0,1.0,85,0.00,,,0.00,137,HR-IXPWINDi_r2_v1.2.,2013-03-06 16:15:00,
2013-03-06 08:20:00,51.4,46.4,30.12,NNW,331,0.0,2.0,83,0.00,,,0.00,195,HR-IXPWINDi_r2_v1.2.,2013-03-06 16:20:00,
2013-03-06 08:25:00,51.8,46.7,30.13,South,179,2.0,4.0,83,0.00,,,0.00,202,HR-IXPWINDi_r2_v1.2.,2013-03-06 16:25:00,
2013-03-06 08:31:00,52.4,47.0,30.13,South,179,1.0,4.0,82,0.00,,,0.00,197,HR-IXPWINDi_r2_v1.2.,2013-03-06 16:31:00,
2013-03-06 08:36:00,52.4,47.0,30.13,South,179,0.0,4.0,82,0.00,,,0.00,155,HR-IXPWINDi_r2_v1.2.,2013-03-06 16:36:00,
2013-03-06 08:41:00,52.5,47.1,30.12,South,179,0.0,3.0,82,0.00,,,0.00,156,HR-IXPWINDi_r2_v1.2.,2013-03-06 16:41:00,
2013-03-06 08:46:00,52.8,47.1,30.12,South,175,3.0,4.0,81,0.00,,,0.00,179,HR-IXPWINDi_r2_v1.2.,2013-03-06 16:46:00,
2013-03-06 08:51:00,52.0,46.3,30.12,South,186,2.0,6.0,81,0.00,,,0.00,149,HR-IXPWINDi_r2_v1.2.,2013-03-06 16:51:00,
2013-03-06 08:57:00,52.5,47.1,30.12,South,190,0.0,6.0,82,0.00,,,0.00,207,HR-IXPWINDi_r2_v1.2.,2013-03-06 16:57:00,
2013-03-06 09:02:00,53.5,47.1,30.12,South,172,2.0,5.0,79,0.00,,,0.00,223,HR-IXPWINDi_r2_v1.2.,2013-03-06 17:02:00,
2013-03-06 09:07:00,53.7,46.6,30.12,South,183,3.0,5.0,77,0.00,,,0.00,232,HR-IXPWINDi_r2_v1.2.,2013-03-06 17:07:00,
2013-03-06 09:12:00,54.0,47.6,30.12,SSE,155,1.0,5.0,79,0.00,,,0.00,313,HR-IXPWINDi_r2_v1.2.,2013-03-06 17:12:00,
2013-03-06 09:17:00,53.9,46.8,30.12,South,183,1.0,5.0,77,0.00,,,0.00,246,HR-IXPWINDi_r2_v1.2.,2013-03-06 17:17:00,
2013-03-06 09:22:00,53.5,46.1,30.12,South,189,1.0,3.0,76,0.00,,,0.00,213,HR-IXPWINDi_r2_v1.2.,2013-03-06 17:22:00,
2013-03-06 09:28:00,53.8,46.0,30.12,South,184,0.0,3.0,75,0.00,,,0.00,230,HR-IXPWINDi_r2_v1.2.,2013-03-06 17:28:00,
2013-03-06 09:33:00,54.1,45.9,30.12,South,185,2.0,3.0,74,0.00,,,0.00,362,HR-IXPWINDi_r2_v1.2.,2013-03-06 17:33:00,
2013-03-06 09:38:00,55.4,46.5,30.11,SSE,163,1.0,3.0,72,0.00,,,0.00,411,HR-IXPWINDi_r2_v1.2.,2013-03-06 17:38:00,
2013-03-06 09:43:00,55.8,45.3,30.11,South,189,3.0,4.0,68,0.00,,,0.00,320,HR-IXPWINDi_r2_v1.2.,2013-03-06 17:43:00,
2013-03-06 09:48:00,55.2,45.5,30.12,SSW,193,1.0,4.0,70,0.00,,,0.00,234,HR-IXPWINDi_r2_v1.2.,2013-03-06 17:48:00,
2013-03-06 09:53:00,56.0,44.8,30.12,South,189,3.0,5.0,66,0.00,,,0.00,251,HR-IXPWINDi_r2_v1.2.,2013-03-06 17:53:00,
2013-03-06 09:58:00,56.2,45.3,30.12,SE,140,0.0,5.0,67,0.00,,,0.00,272,HR-IXPWINDi_r2_v1.2.,2013-03-06 17:58:00,
2013-03-06 10:03:00,56.7,45.4,30.12,SSE,150,1.0,4.0,66,0.00,,,0.00,267,HR-IXPWINDi_r2_v1.2.,2013-03-06 18:03:00,
2013-03-06 10:09:00,56.4,43.5,30.12,SSE,166,0.0,3.0,62,0.00,,,0.00,243,HR-IXPWINDi_r2_v1.2.,2013-03-06 18:09:00,
2013-03-06 10:14:00,55.5,43.1,30.12,WSW,252,0.0,4.0,63,0.00,,,0.00,241,HR-IXPWINDi_r2_v1.2.,2013-03-06 18:14:00,
2013-03-06 10:19:00,55.8,45.3,30.12,NW,309,1.0,4.0,68,0.00,,,0.00,258,HR-IXPWINDi_r2_v1.2.,2013-03-06 18:19:00,
2013-03-06 10:24:00,55.9,45.4,30.12,WSW,257,5.0,6.0,68,0.00,,,0.00,241,HR-IXPWINDi_r2_v1.2.,2013-03-06 18:24:00,
2013-03-06 10:30:00,54.6,43.8,30.12,West,259,1.0,6.0,67,0.00,,,0.00,262,HR-IXPWINDi_r2_v1.2.,2013-03-06 18:30:00,
2013-03-06 10:35:00,55.3,45.3,30.12,NNW,346,1.0,6.0,69,0.00,,,0.00,304,HR-IXPWINDi_r2_v1.2.,2013-03-06 18:35:00,
2013-03-06 10:40:00,55.1,43.9,30.12,NE,40,0.0,3.0,66,0.00,,,0.00,237,HR-IXPWINDi_r2_v1.2.,2013-03-06 18:40:00,
2013-03-06 10:45:00,55.1,44.3,30.12,NE,40,1.0,3.0,67,0.00,,,0.00,258,HR-IXPWINDi_r2_v1.2.,2013-03-06 18:45:00,
2013-03-06 10:51:00,54.9,43.7,30.12,NE,52,0.0,3.0,66,0.00,,,0.00,214,HR-IXPWINDi_r2_v1.2.,2013-03-06 18:51:00,
2013-03-06 10:56:00,54.9,44.1,30.12,North,11,3.0,4.0,67,0.00,,,0.00,278,HR-IXPWINDi_r2_v1.2.,2013-03-06 18:56:00,
2013-03-06 11:01:00,55.7,45.6,30.11,SE,133,0.0,4.0,69,0.00,,,0.00,285,HR-IXPWINDi_r2_v1.2.,2013-03-06 19:01:00,
2013-03-06 11:06:00,57.0,45.7,30.11,SSW,194,0.0,4.0,66,0.00,,,0.00,287,HR-IXPWINDi_r2_v1.2.,2013-03-06 19:06:00,
2013-03-06 11:11:00,57.2,45.1,30.11,East,96,2.0,5.0,64,0.00,,,0.00,257,HR-IXPWINDi_r2_v1.2.,2013-03-06 19:11:00,
2013-03-06 11:16:00,56.0,45.1,30.11,South,183,0.0,5.0,67,0.00,,,0.00,281,HR-IXPWINDi_r2_v1.2.,2013-03-06 19:16:00,
2013-03-06 11:22:00,55.8,43.8,30.11,SW,221,0.0,3.0,64,0.00,,,0.00,178,HR-IXPWINDi_r2_v1.2.,2013-03-06 19:22:00,
2013-03-06 11:27:00,55.8,45.0,30.11,North,355,3.0,3.0,67,0.00,,,0.00,197,HR-IXPWINDi_r2_v1.2.,2013-03-06 19:27:00,
2013-03-06 11:32:00,56.0,45.1,30.11,North,355,0.0,3.0,67,0.00,,,0.00,151,HR-IXPWINDi_r2_v1.2.,2013-03-06 19:32:00,
2013-03-06 11:37:00,55.8,45.0,30.11,SSE,168,3.0,6.0,67,0.00,,,0.00,153,HR-IXPWINDi_r2_v1.2.,2013-03-06 19:37:00,
2013-03-06 11:43:00,55.4,45.0,30.11,South,189,2.0,8.0,68,0.00,,,0.00,246,HR-IXPWINDi_r2_v1.2.,2013-03-06 19:43:00,
2013-03-06 11:48:00,54.8,44.8,30.11,South,178,0.0,8.0,69,0.00,,,0.00,350,HR-IXPWINDi_r2_v1.2.,2013-03-06 19:48:00,
2013-03-06 11:53:00,56.8,47.1,30.11,SE,140,2.0,5.0,70,0.00,,,0.00,227,HR-IXPWINDi_r2_v1.2.,2013-03-06 19:53:00,
2013-03-06 11:58:00,56.4,45.9,30.11,SSE,166,2.0,7.0,68,0.00,,,0.00,227,HR-IXPWINDi_r2_v1.2.,2013-03-06 19:58:00,
2013-03-06 12:03:00,56.6,46.5,30.11,South,178,2.0,7.0,69,0.00,,,0.00,223,HR-IXPWINDi_r2_v1.2.,2013-03-06 20:03:00,
2013-03-06 12:08:00,56.6,47.3,30.10,SSE,158,2.0,6.0,71,0.00,,,0.00,246,HR-IXPWINDi_r2_v1.2.,2013-03-06 20:08:00,
2013-03-06 12:13:00,56.8,47.1,30.10,ESE,102,2.0,4.0,70,0.00,,,0.00,269,HR-IXPWINDi_r2_v1.2.,2013-03-06 20:13:00,
2013-03-06 12:18:00,56.8,47.4,30.10,SSE,168,1.0,4.0,71,0.00,,,0.00,223,HR-IXPWINDi_r2_v1.2.,2013-03-06 20:18:00,
2013-03-06 12:24:00,56.6,47.3,30.10,South,186,0.0,3.0,71,0.00,,,0.00,221,HR-IXPWINDi_r2_v1.2.,2013-03-06 20:24:00,
2013-03-06 12:29:00,56.2,46.5,30.10,South,182,3.0,3.0,70,0.00,,,0.00,239,HR-IXPWINDi_r2_v1.2.,2013-03-06 20:29:00,
2013-03-06 12:34:00,55.7,47.1,30.09,SW,228,1.0,4.0,73,0.00,,,0.00,237,HR-IXPWINDi_r2_v1.2.,2013-03-06 20:34:00,
2013-03-06 12:39:00,55.7,47.1,30.09,NW,307,1.0,4.0,73,0.00,,,0.00,265,HR-IXPWINDi_r2_v1.2.,2013-03-06 20:39:00,
2013-03-06 12:44:00,56.0,47.4,30.09,NE,48,2.0,4.0,73,0.00,,,0.00,276,HR-IXPWINDi_r2_v1.2.,2013-03-06 20:44:00,
2013-03-06 12:50:00,56.3,47.3,30.09,SE,140,0.0,3.0,72,0.00,,,0.00,276,HR-IXPWINDi_r2_v1.2.,2013-03-06 20:50:00,
2013-03-06 12:55:00,56.3,47.3,30.08,South,190,4.0,5.0,72,0.00,,,0.00,258,HR-IXPWINDi_r2_v1.2.,2013-03-06 20:55:00,
2013-03-06 13:00:00,55.2,48.1,30.08,SSE,164,1.0,5.0,77,0.00,,,0.00,278,HR-IXPWINDi_r2_v1.2.,2013-03-06 21:00:00,
2013-03-06 13:05:00,55.3,48.2,30.08,South,175,2.0,5.0,77,0.00,,,0.00,322,HR-IXPWINDi_r2_v1.2.,2013-03-06 21:05:00,
2013-03-06 13:10:00,56.5,49.0,30.08,SSE,161,1.0,5.0,76,0.00,,,0.00,323,HR-IXPWINDi_r2_v1.2.,2013-03-06 21:10:00,
2013-03-06 13:15:00,56.0,47.8,30.07,East,96,0.0,4.0,74,0.00,,,0.00,283,HR-IXPWINDi_r2_v1.2.,2013-03-06 21:15:00,
2013-03-06 13:20:00,55.3,47.1,30.07,South,182,6.0,6.0,74,0.00,,,0.00,220,HR-IXPWINDi_r2_v1.2.,2013-03-06 21:20:00,
2013-03-06 13:25:00,55.0,46.8,30.07,SSW,192,2.0,6.0,74,0.00,,,0.00,232,HR-IXPWINDi_r2_v1.2.,2013-03-06 21:25:00,
2013-03-06 13:31:00,56.1,47.9,30.07,SSW,213,0.0,6.0,74,0.00,,,0.00,276,HR-IXPWINDi_r2_v1.2.,2013-03-06 21:31:00,
2013-03-06 13:36:00,55.1,47.6,30.06,South,171,0.0,4.0,76,0.00,,,0.00,278,HR-IXPWINDi_r2_v1.2.,2013-03-06 21:36:00,
2013-03-06 13:41:00,55.6,47.7,30.06,SW,215,1.0,5.0,75,0.00,,,0.00,178,HR-IXPWINDi_r2_v1.2.,2013-03-06 21:41:00,
2013-03-06 13:46:00,55.5,47.3,30.06,South,182,2.0,7.0,74,0.00,,,0.00,200,HR-IXPWINDi_r2_v1.2.,2013-03-06 21:46:00,
2013-03-06 13:51:00,55.0,47.2,30.06,South,182,0.0,7.0,75,0.00,,,0.00,204,HR-IXPWINDi_r2_v1.2.,2013-03-06 21:51:00,
2013-03-06 13:57:00,56.3,48.4,30.05,SSE,149,1.0,6.0,75,0.00,,,0.00,246,HR-IXPWINDi_r2_v1.2.,2013-03-06 21:57:00,
2013-03-06 14:02:00,56.9,48.6,30.05,South,175,5.0,8.0,74,0.00,,,0.00,274,HR-IXPWINDi_r2_v1.2.,2013-03-06 22:02:00,
2013-03-06 14:07:00,56.7,48.8,30.05,South,184,2.0,8.0,75,0.00,,,0.00,211,HR-IXPWINDi_r2_v1.2.,2013-03-06 22:07:00,
2013-03-06 14:12:00,56.4,48.5,30.05,SE,132,0.0,6.0,75,0.00,,,0.00,272,HR-IXPWINDi_r2_v1.2.,2013-03-06 22:12:00,
2013-03-06 14:18:00,56.8,48.5,30.05,South,174,4.0,4.0,74,0.00,,,0.00,218,HR-IXPWINDi_r2_v1.2.,2013-03-06 22:18:00,
2013-03-06 14:23:00,57.2,48.9,30.05,SSE,154,2.0,5.0,74,0.00,,,0.00,186,HR-IXPWINDi_r2_v1.2.,2013-03-06 22:23:00,
2013-03-06 14:28:00,56.5,48.6,30.05,SSE,165,1.0,5.0,75,0.00,,,0.00,169,HR-IXPWINDi_r2_v1.2.,2013-03-06 22:28:00,
2013-03-06 14:33:00,56.7,48.1,30.05,SSW,205,3.0,6.0,73,0.00,,,0.00,214,HR-IXPWINDi_r2_v1.2.,2013-03-06 22:33:00,
2013-03-06 14:38:00,56.3,47.7,30.05,SSW,194,2.0,7.0,73,0.00,,,0.00,185,HR-IXPWINDi_r2_v1.2.,2013-03-06 22:38:00,
2013-03-06 14:44:00,55.6,47.7,30.05,South,184,1.0,7.0,75,0.00,,,0.00,178,HR-IXPWINDi_r2_v1.2.,2013-03-06 22:44:00,
2013-03-06 14:49:00,55.7,47.8,30.05,SSW,194,1.0,7.0,75,0.00,,,0.00,139,HR-IXPWINDi_r2_v1.2.,2013-03-06 22:49:00,
2013-03-06 14:54:00,55.9,48.4,30.04,South,180,2.0,6.0,76,0.00,,,0.00,148,HR-IXPWINDi_r2_v1.2.,2013-03-06 22:54:00,
2013-03-06 14:59:00,56.1,47.9,30.04,SSE,163,0.0,6.0,74,0.00,,,0.00,95,HR-IXPWINDi_r2_v1.2.,2013-03-06 22:59:00,
2013-03-06 15:04:00,55.9,48.0,30.04,South,183,1.0,8.0,75,0.00,,,0.00,156,HR-IXPWINDi_r2_v1.2.,2013-03-06 23:04:00,
2013-03-06 15:09:00,56.1,48.2,30.04,South,191,5.0,8.0,75,0.00,,,0.00,156,HR-IXPWINDi_r2_v1.2.,2013-03-06 23:09:00,
2013-03-06 15:15:00,56.0,48.1,30.04,SW,219,0.0,6.0,75,0.00,,,0.00,295,HR-IXPWINDi_r2_v1.2.,2013-03-06 23:15:00,
2013-03-06 15:20:00,57.0,48.7,30.03,South,182,2.0,6.0,74,0.00,,,0.00,130,HR-IXPWINDi_r2_v1.2.,2013-03-06 23:20:00,
2013-03-06 15:25:00,56.8,48.2,30.03,South,173,4.0,4.0,73,0.00,,,0.00,84,HR-IXPWINDi_r2_v1.2.,2013-03-06 23:25:00,
2013-03-06 15:30:00,56.3,48.1,30.03,South,181,4.0,4.0,74,0.00,,,0.00,49,HR-IXPWINDi_r2_v1.2.,2013-03-06 23:30:00,
2013-03-06 15:36:00,55.8,47.9,30.03,SSE,161,2.0,6.0,75,0.00,,,0.00,35,HR-IXPWINDi_r2_v1.2.,2013-03-06 23:36:00,
2013-03-06 15:41:00,55.5,48.0,30.03,SSE,165,0.0,7.0,76,0.00,,,0.00,76,HR-IXPWINDi_r2_v1.2.,2013-03-06 23:41:00,
2013-03-06 15:46:00,55.5,48.3,30.03,SSE,167,6.0,8.0,77,0.00,,,0.00,141,HR-IXPWINDi_r2_v1.2.,2013-03-06 23:46:00,
2013-03-06 15:51:00,55.6,48.1,30.03,South,190,4.0,8.0,76,0.00,,,0.00,81,HR-IXPWINDi_r2_v1.2.,2013-03-06 23:51:00,
2013-03-06 15:56:00,55.2,48.1,30.03,SSW,204,4.0,10.0,77,0.00,,,0.00,58,HR-IXPWINDi_r2_v1.2.,2013-03-06 23:56:00,
2013-03-06 16:01:00,55.1,48.3,30.03,SSW,195,5.0,10.0,78,0.00,,,0.00,77,HR-IXPWINDi_r2_v1.2.,2013-03-07 00:01:00,
2013-03-06 16:07:00,54.5,48.1,30.03,South,172,5.0,8.0,79,0.00,,,0.00,113,HR-IXPWINDi_r2_v1.2.,2013-03-07 00:07:00,
2013-03-06 16:12:00,54.6,48.5,30.03,South,181,3.0,8.0,80,0.00,,,0.00,116,HR-IXPWINDi_r2_v1.2.,2013-03-07 00:12:00,
2013-03-06 16:17:00,54.5,48.4,30.03,South,181,1.0,8.0,80,0.00,,,0.00,93,HR-IXPWINDi_r2_v1.2.,2013-03-07 00:17:00,
2013-03-06 16:22:00,54.0,48.2,30.03,SSE,157,2.0,8.0,81,0.00,,,0.00,90,HR-IXPWINDi_r2_v1.2.,2013-03-07 00:22:00,
2013-03-06 16:27:00,54.0,48.9,30.02,South,176,2.0,8.0,83,0.00,,,0.00,113,HR-IXPWINDi_r2_v1.2.,2013-03-07 00:27:00,
2013-03-06 16:33:00,54.1,48.7,30.03,South,176,3.0,8.0,82,0.00,,,0.00,39,HR-IXPWINDi_r2_v1.2.,2013-03-07 00:33:00,
2013-03-06 16:38:00,53.7,48.3,30.03,SSW,194,2.0,10.0,82,0.00,,,0.00,65,HR-IXPWINDi_r2_v1.2.,2013-03-07 00:38:00,
2013-03-06 16:43:00,53.3,48.2,30.03,SSE,150,3.0,10.0,83,0.00,,,0.00,39,HR-IXPWINDi_r2_v1.2.,2013-03-07 00:43:00,
2013-03-06 16:48:00,53.3,48.5,30.03,SSW,192,3.0,7.0,84,0.00,,,0.00,32,HR-IXPWINDi_r2_v1.2.,2013-03-07 00:48:00,
2013-03-06 16:54:00,53.1,48.3,30.03,South,174,1.0,7.0,84,0.00,,,0.00,74,HR-IXPWINDi_r2_v1.2.,2013-03-07 00:54:00,
2013-03-06 16:59:00,53.0,48.2,30.03,South,188,3.0,7.0,84,0.00,,,0.00,39,HR-IXPWINDi_r2_v1.2.,2013-03-07 00:59:00,
2013-03-06 17:04:00,52.8,48.4,30.03,South,175,6.0,7.0,85,0.00,,,0.00,28,HR-IXPWINDi_r2_v1.2.,2013-03-07 01:04:00,
2013-03-06 17:09:00,52.5,48.1,30.03,South,173,0.0,10.0,85,0.00,,,0.00,26,HR-IXPWINDi_r2_v1.2.,2013-03-07 01:09:00,
2013-03-06 17:14:00,52.6,48.2,30.03,SSE,167,2.0,10.0,85,0.00,,,0.00,23,HR-IXPWINDi_r2_v1.2.,2013-03-07 01:14:00,
2013-03-06 17:20:00,52.4,48.0,30.02,SW,227,1.0,5.0,85,0.00,,,0.00,19,HR-IXPWINDi_r2_v1.2.,2013-03-07 01:20:00,
2013-03-06 17:25:00,52.2,48.1,30.02,SW,224,2.0,5.0,86,0.00,,,0.00,9,HR-IXPWINDi_r2_v1.2.,2013-03-07 01:25:00,
2013-03-06 17:30:00,52.1,48.0,30.02,SSE,157,2.0,5.0,86,0.00,,,0.00,7,HR-IXPWINDi_r2_v1.2.,2013-03-07 01:30:00,
2013-03-06 17:35:00,52.3,48.2,30.02,SSE,168,0.0,5.0,86,0.00,,,0.00,9,HR-IXPWINDi_r2_v1.2.,2013-03-07 01:35:00,
2013-03-06 17:40:00,52.4,48.3,30.02,SSE,168,0.0,2.0,86,0.00,,,0.00,9,HR-IXPWINDi_r2_v1.2.,2013-03-07 01:40:00,
2013-03-06 17:45:00,52.3,48.2,30.02,SSE,168,1.0,2.0,86,0.00,,,0.00,7,HR-IXPWINDi_r2_v1.2.,2013-03-07 01:45:00,
2013-03-06 17:51:00,52.3,48.2,30.02,SE,146,0.0,3.0,86,0.00,,,0.00,0,HR-IXPWINDi_r2_v1.2.,2013-03-07 01:51:00,
2013-03-06 17:56:00,52.3,48.2,30.02,SSW,199,2.0,4.0,86,0.00,,,0.00,0,HR-IXPWINDi_r2_v1.2.,2013-03-07 01:56:00,
2013-03-06 18:01:00,52.2,48.1,30.02,South,185,0.0,4.0,86,0.00,,,0.00,0,HR-IXPWINDi_r2_v1.2.,2013-03-07 02:01:00,
2013-03-06 18:06:00,52.2,48.1,30.02,South,179,0.0,4.0,86,0.00,,,0.00,0,HR-IXPWINDi_r2_v1.2.,2013-03-07 02:06:00,
2013-03-06 18:11:00,52.2,48.1,30.02,South,179,0.0,4.0,86,0.00,,,0.00,0,HR-IXPWINDi_r2_v1.2.,2013-03-07 02:11:00,
2013-03-06 18:17:00,52.1,48.0,30.02,South,179,0.0,1.0,86,0.00,,,0.00,0,HR-IXPWINDi_r2_v1.2.,2013-03-07 02:17:00,
2013-03-06 18:22:00,52.0,48.2,30.01,South,179,0.0,1.0,87,0.00,,,0.00,0,HR-IXPWINDi_r2_v1.2.,2013-03-07 02:22:00,
2013-03-06 18:27:00,51.8,48.0,30.01,South,179,0.0,2.0,87,0.00,,,0.00,0,HR-IXPWINDi_r2_v1.2.,2013-03-07 02:27:00,
2013-03-06 18:32:00,51.6,47.8,30.01,South,179,0.0,2.0,87,0.00,,,0.00,0,HR-IXPWINDi_r2_v1.2.,2013-03-07 02:32:00,
2013-03-06 18:38:00,51.6,47.8,30.01,South,179,0.0,2.0,87,0.00,,,0.00,0,HR-IXPWINDi_r2_v1.2.,2013-03-07 02:38:00,
2013-03-06 18:43:00,51.6,47.8,30.01,South,179,0.0,2.0,87,0.00,,,0.00,0,HR-IXPWINDi_r2_v1.2.,2013-03-07 02:43:00,
2013-03-06 18:48:00,51.5,48.0,30.01,South,179,0.0,2.0,88,0.00,,,0.00,0,HR-IXPWINDi_r2_v1.2.,2013-03-07 02:48:00,
2013-03-06 18:53:00,51.4,47.9,30.01,South,179,1.0,1.0,88,0.00,,,0.00,0,HR-IXPWINDi_r2_v1.2.,2013-03-07 02:53:00,
2013-03-06 18:58:00,51.4,47.9,30.01,South,179,0.0,2.0,88,0.00,,,0.00,0,HR-IXPWINDi_r2_v1.2.,2013-03-07 02:58:00,
2013-03-06 19:03:00,51.4,47.9,30.01,South,179,0.0,2.0,88,0.00,,,0.00,0,HR-IXPWINDi_r2_v1.2.,2013-03-07 03:03:00,
2013-03-06 19:08:00,51.4,47.9,30.01,South,179,2.0,3.0,88,0.00,,,0.00,0,HR-IXPWINDi_r2_v1.2.,2013-03-07 03:08:00,
2013-03-06 19:14:00,51.4,47.9,30.01,South,179,0.0,3.0,88,0.00,,,0.00,0,HR-IXPWINDi_r2_v1.2.,2013-03-07 03:14:00,
2013-03-06 19:19:00,51.3,47.8,30.01,South,179,0.0,3.0,88,0.00,,,0.00,0,HR-IXPWINDi_r2_v1.2.,2013-03-07 03:19:00,
2013-03-06 19:24:00,51.3,47.8,30.01,South,179,0.0,2.0,88,0.00,,,0.00,0,HR-IXPWINDi_r2_v1.2.,2013-03-07 03:24:00,
2013-03-06 19:29:00,51.3,47.8,30.01,South,179,0.0,3.0,88,0.00,,,0.00,0,HR-IXPWINDi_r2_v1.2.,2013-03-07 03:29:00,
2013-03-06 19:34:00,51.2,47.7,30.01,South,179,0.0,3.0,88,0.00,,,0.00,0,HR-IXPWINDi_r2_v1.2.,2013-03-07 03:34:00,
2013-03-06 19:39:00,51.2,47.7,30.01,South,177,2.0,3.0,88,0.00,,,0.00,0,HR-IXPWINDi_r2_v1.2.,2013-03-07 03:39:00,
2013-03-06 19:45:00,51.2,47.7,30.01,South,188,1.0,5.0,88,0.00,,,0.00,0,HR-IXPWINDi_r2_v1.2.,2013-03-07 03:45:00,
2013-03-06 19:50:00,51.2,48.0,30.01,SSW,196,4.0,5.0,89,0.00,,,0.00,0,HR-IXPWINDi_r2_v1.2.,2013-03-07 03:50:00,
2013-03-06 19:55:00,51.2,48.0,30.01,SSW,197,2.0,4.0,89,0.00,,,0.00,0,HR-IXPWINDi_r2_v1.2.,2013-03-07 03:55:00,
2013-03-06 20:00:00,51.1,47.9,30.01,South,190,0.0,4.0,89,0.00,,,0.00,0,HR-IXPWINDi_r2_v1.2.,2013-03-07 04:00:00,
2013-03-06 20:05:00,51.1,47.9,30.01,South,190,0.0,3.0,89,0.00,,,0.00,0,HR-IXPWINDi_r2_v1.2.,2013-03-07 04:05:00,
2013-03-06 20:11:00,51.1,47.9,30.01,South,190,1.0,3.0,89,0.00,,,0.00,0,HR-IXPWINDi_r2_v1.2.,2013-03-07 04:11:00,
2013-03-06 20:16:00,51.0,47.8,30.01,South,182,3.0,4.0,89,0.00,,,0.00,0,HR-IXPWINDi_r2_v1.2.,2013-03-07 04:16:00,
2013-03-06 20:21:00,51.0,47.8,30.01,South,181,1.0,5.0,89,0.00,,,0.00,0,HR-IXPWINDi_r2_v1.2.,2013-03-07 04:21:00,
2013-03-06 20:26:00,50.9,48.0,30.01,South,190,0.0,5.0,90,0.00,,,0.00,0,HR-IXPWINDi_r2_v1.2.,2013-03-07 04:26:00,
2013-03-06 20:31:00,50.8,47.9,30.01,SSW,213,0.0,4.0,90,0.00,,,0.00,0,HR-IXPWINDi_r2_v1.2.,2013-03-07 04:31:00,
2013-03-06 20:36:00,50.7,47.8,30.01,SW,214,2.0,2.0,90,0.00,,,0.00,0,HR-IXPWINDi_r2_v1.2.,2013-03-07 04:36:00,
2013-03-06 20:42:00,50.6,47.7,30.00,SW,214,0.0,2.0,90,0.00,,,0.00,0,HR-IXPWINDi_r2_v1.2.,2013-03-07 04:42:00,
2013-03-06 20:47:00,50.5,47.6,30.01,SW,214,0.0,2.0,90,0.00,,,0.00,0,HR-IXPWINDi_r2_v1.2.,2013-03-07 04:47:00,
2013-03-06 20:52:00,50.5,47.9,30.01,SW,214,0.0,1.0,91,0.00,,,0.00,0,HR-IXPWINDi_r2_v1.2.,2013-03-07 04:52:00,
2013-03-06 20:57:00,50.5,47.9,30.01,SW,214,0.0,1.0,91,0.00,,,0.00,0,HR-IXPWINDi_r2_v1.2.,2013-03-07 04:57:00,
2013-03-06 21:00:00,50.6,48.0,30.00,SW,214,0.0,1.0,91,0.00,,,0.00,0,HR-IXPWINDi_r2_v1.2.,2013-03-07 05:00:00,
2013-03-06 21:05:00,50.5,47.6,30.00,SW,214,2.0,2.0,90,0.00,,,0.00,0,HR-IXPWINDi_r2_v1.2.,2013-03-07 05:05:00,
2013-03-06 21:11:00,50.4,47.8,30.00,SW,214,1.0,3.0,91,0.00,,,0.00,0,HR-IXPWINDi_r2_v1.2.,2013-03-07 05:11:00,
2013-03-06 21:16:00,50.3,47.7,30.00,SW,214,0.0,3.0,91,0.00,,,0.00,0,HR-IXPWINDi_r2_v1.2.,2013-03-07 05:16:00,
2013-03-06 21:21:00,50.2,47.3,30.00,SW,214,0.0,2.0,90,0.00,,,0.00,0,HR-IXPWINDi_r2_v1.2.,2013-03-07 05:21:00,
2013-03-06 21:26:00,50.0,47.4,30.01,SW,214,0.0,0.0,91,0.00,,,0.00,0,HR-IXPWINDi_r2_v1.2.,2013-03-07 05:26:00,
2013-03-06 21:31:00,50.0,47.4,30.01,SW,214,0.0,0.0,91,0.00,,,0.00,0,HR-IXPWINDi_r2_v1.2.,2013-03-07 05:31:00,
2013-03-06 21:36:00,50.2,47.6,30.01,SW,214,0.0,0.0,91,0.00,,,0.00,0,HR-IXPWINDi_r2_v1.2.,2013-03-07 05:36:00,
2013-03-06 21:42:00,50.3,47.7,30.01,SW,214,0.0,2.0,91,0.00,,,0.00,0,HR-IXPWINDi_r2_v1.2.,2013-03-07 05:42:00,
2013-03-06 21:47:00,50.4,47.8,30.01,SW,214,0.0,2.0,91,0.00,,,0.00,0,HR-IXPWINDi_r2_v1.2.,2013-03-07 05:47:00,
2013-03-06 21:52:00,50.5,47.9,30.01,SW,214,2.0,2.0,91,0.00,,,0.00,0,HR-IXPWINDi_r2_v1.2.,2013-03-07 05:52:00,
2013-03-06 21:57:00,50.4,47.8,30.01,SW,214,0.0,2.0,91,0.00,,,0.00,0,HR-IXPWINDi_r2_v1.2.,2013-03-07 05:57:00,
2013-03-06 22:03:00,50.6,48.0,30.01,SW,214,0.0,1.0,91,0.00,,,0.00,0,HR-IXPWINDi_r2_v1.2.,2013-03-07 06:03:00,
2013-03-06 22:08:00,50.6,47.7,30.01,SW,214,0.0,0.0,90,0.00,,,0.00,0,HR-IXPWINDi_r2_v1.2.,2013-03-07 06:08:00,
2013-03-06 22:13:00,50.6,47.7,30.00,SW,214,0.0,2.0,90,0.00,,,0.00,0,HR-IXPWINDi_r2_v1.2.,2013-03-07 06:13:00,
2013-03-06 22:18:00,50.5,47.9,30.00,SW,214,0.0,2.0,91,0.00,,,0.00,0,HR-IXPWINDi_r2_v1.2.,2013-03-07 06:18:00,
2013-03-06 22:23:00,50.5,47.6,30.00,SW,214,0.0,1.0,90,0.00,,,0.00,0,HR-IXPWINDi_r2_v1.2.,2013-03-07 06:23:00,
2013-03-06 22:28:00,50.4,47.5,30.00,SW,214,0.0,1.0,90,0.00,,,0.00,0,HR-IXPWINDi_r2_v1.2.,2013-03-07 06:28:00,
2013-03-06 22:34:00,50.4,47.5,30.00,SW,214,0.0,2.0,90,0.00,,,0.00,0,HR-IXPWINDi_r2_v1.2.,2013-03-07 06:34:00,
2013-03-06 22:39:00,50.4,47.8,30.00,SW,214,0.0,2.0,91,0.00,,,0.00,0,HR-IXPWINDi_r2_v1.2.,2013-03-07 06:39:00,
2013-03-06 22:44:00,50.4,47.8,30.00,SW,214,0.0,1.0,91,0.00,,,0.00,0,HR-IXPWINDi_r2_v1.2.,2013-03-07 06:44:00,
2013-03-06 22:50:00,50.3,47.4,30.00,SW,214,0.0,0.0,90,0.00,,,0.00,0,HR-IXPWINDi_r2_v1.2.,2013-03-07 06:50:00,
2013-03-06 22:55:00,50.3,47.7,30.00,SW,214,0.0,1.0,91,0.00,,,0.00,0,HR-IXPWINDi_r2_v1.2.,2013-03-07 06:55:00,
2013-03-06 23:00:00,50.3,47.7,29.99,SW,214,0.0,1.0,91,0.00,,,0.00,0,HR-IXPWINDi_r2_v1.2.,2013-03-07 07:00:00,
2013-03-06 23:05:00,50.3,47.7,29.99,SW,214,1.0,1.0,91,0.00,,,0.00,0,HR-IXPWINDi_r2_v1.2.,2013-03-07 07:05:00,
2013-03-06 23:10:00,50.3,47.7,29.99,SW,214,0.0,1.0,91,0.00,,,0.00,0,HR-IXPWINDi_r2_v1.2.,2013-03-07 07:10:00,
2013-03-06 23:16:00,50.3,47.4,29.99,SW,214,0.0,1.0,90,0.00,,,0.00,0,HR-IXPWINDi_r2_v1.2.,2013-03-07 07:16:00,
2013-03-06 23:21:00,50.3,47.7,29.99,SW,214,0.0,1.0,91,0.00,,,0.00,0,HR-IXPWINDi_r2_v1.2.,2013-03-07 07:21:00,
2013-03-06 23:26:00,50.3,47.4,29.98,SW,214,0.0,0.0,90,0.00,,,0.00,0,HR-IXPWINDi_r2_v1.2.,2013-03-07 07:26:00,
2013-03-06 23:32:00,50.2,47.3,29.98,SW,214,0.0,0.0,90,0.00,,,0.00,0,HR-IXPWINDi_r2_v1.2.,2013-03-07 07:32:00,
2013-03-06 23:37:00,50.1,47.2,29.98,SW,214,0.0,0.0,90,0.00,,,0.00,0,HR-IXPWINDi_r2_v1.2.,2013-03-07 07:37:00,
2013-03-06 23:43:00,50.1,47.2,29.98,SW,214,0.0,0.0,90,0.00,,,0.00,0,HR-IXPWINDi_r2_v1.2.,2013-03-07 07:43:00,
2013-03-06 23:48:00,50.1,47.2,29.98,SW,214,0.0,0.0,90,0.00,,,0.00,0,HR-IXPWINDi_r2_v1.2.,2013-03-07 07:48:00,
2013-03-06 23:54:00,50.1,47.2,29.98,SW,214,0.0,0.0,90,0.00,,,0.00,0,HR-IXPWINDi_r2_v1.2.,2013-03-07 07:54:00,
2013-03-06 23:59:00,50.0,47.4,29.98,SW,214,0.0,0.0,91,0.00,,,0.00,0,HR-IXPWINDi_r2_v1.2.,2013-03-07 07:59:00,